Springfield, OH

5:52 PM EDT on April 23, 2018 (GMT -0400)
Springfield-Beckley Municipal

Weather History for KSGH - November, 2012

Change the Weather History Date:

Saturday, November 3, 2012

  Actual Average (KFFO) Record (KFFO)
Temperature  
Mean Temperature 34 °F -  
Max Temperature 41 °F 55 °F 77 °F (2003)
Min Temperature 28 °F 37 °F 21 °F (2006)
Degree Days  
Heating Degree Days 30    
Moisture  
Dew Point 30 °F    
Average Humidity 76    
Maximum Humidity 92    
Minimum Humidity 60    
Precipitation  
Precipitation 0.00 in - - ()
Sea Level Pressure  
Sea Level Pressure 30.16 in    
Wind  
Wind Speed 4 mph (NNW)    
Max Wind Speed 8 mph    
Max Gust Speed -    
Visibility 7 miles    
Events      
Averages and records for this station are not official NWS values.
T = Trace of Precipitation, MM = Missing Value Source: NWS Daily Summary

Daily Weather History Graph

Daily Weather History Graph

Search for Another Location

Airport or City:

Astronomy

Nov. 03, 2012 Rise Set
Actual Time 8:06 AM EDT 6:30 PM EDT
Civil Twilight 7:38 AM EDT 6:58 PM EDT
Nautical Twilight 7:06 AM EDT 7:30 PM EDT
Astronomical Twilight 6:35 AM EDT 8:02 PM EDT
Moon 10:10 PM EDT (11/3) 12:10 PM EDT (11/3)
Length of Visible Light 11h 19m
Length of Day
10h 23m
Waning Gibbous, 80% of the Moon is Illuminated
Nov 3
Waning Gibbous
Nov 6
Last Quarter
Nov 13
New
Nov 20
First Quarter
Nov 28
Full

Hourly Weather History & Observations

Time (EDT) Temp. Windchill Dew Point Humidity Pressure Visibility Wind Dir Wind Speed Gust Speed Precip Events Conditions
12:56 AM 38.8 °F 36.5 °F 30.0 °F 71% 30.11 in 8.0 mi NNW 3.5 mph - N/A   Overcast
1:56 AM 37.9 °F 33.5 °F 30.0 °F 73% 30.11 in 8.0 mi WNW 5.8 mph - N/A   Overcast
2:56 AM 37.9 °F 35.5 °F 30.0 °F 73% 30.12 in 8.0 mi NNW 3.5 mph - N/A   Overcast
3:56 AM 36.9 °F 33.1 °F 29.1 °F 74% 30.12 in 8.0 mi NNW 4.6 mph - N/A   Mostly Cloudy
4:56 AM 31.1 °F 27.7 °F 26.1 °F 82% 30.14 in 7.0 mi West 3.5 mph - N/A   Clear
5:56 AM 31.1 °F 27.7 °F 28.0 °F 88% 30.16 in 8.0 mi West 3.5 mph - N/A   Clear
6:56 AM 28.0 °F 24.2 °F 26.1 °F 92% 30.17 in 6.0 mi West 3.5 mph - N/A   Clear
7:56 AM 29.1 °F - 27.1 °F 92% 30.18 in 6.0 mi Calm Calm - N/A   Clear
8:56 AM 30.0 °F 26.5 °F 27.1 °F 89% 30.20 in 5.0 mi WSW 3.5 mph - N/A   Clear
9:56 AM 34.0 °F 31.0 °F 30.0 °F 85% 30.22 in 6.0 mi West 3.5 mph - N/A   Clear
10:56 AM 37.9 °F - 31.1 °F 76% 30.20 in 6.0 mi Calm Calm - N/A   Haze
11:56 AM 39.9 °F 36.7 °F 30.0 °F 68% 30.18 in 7.0 mi NE 4.6 mph - N/A   Clear
12:56 PM 41.9 °F 40.0 °F 29.1 °F 61% 30.18 in 7.0 mi NNE 3.5 mph - N/A   Partly Cloudy
1:56 PM 41.0 °F - 28.0 °F 60% 30.16 in 7.0 mi Calm Calm - N/A   Clear
2:56 PM 41.0 °F 39.0 °F 28.0 °F 60% 30.14 in 7.0 mi North 3.5 mph - N/A   Partly Cloudy
3:56 PM 41.9 °F - 29.1 °F 61% 30.14 in 7.0 mi Calm Calm - N/A   Mostly Cloudy
4:56 PM 41.0 °F 39.0 °F 30.0 °F 65% 30.14 in 7.0 mi NE 3.5 mph - N/A   Mostly Cloudy
5:56 PM 38.8 °F 34.6 °F 34.0 °F 83% 30.15 in 6.0 mi WSW 5.8 mph - N/A   Haze
6:56 PM 37.9 °F 34.4 °F 34.0 °F 86% 30.16 in 7.0 mi WSW 4.6 mph - N/A   Mostly Cloudy
7:56 PM 37.9 °F 34.4 °F 34.0 °F 86% 30.16 in 7.0 mi West 4.6 mph - N/A   Overcast
8:56 PM 37.9 °F 33.5 °F 32.0 °F 79% 30.17 in 8.0 mi NE 5.8 mph - N/A   Overcast
9:56 PM 37.9 °F 33.5 °F 31.1 °F 76% 30.16 in 8.0 mi NE 5.8 mph - N/A   Overcast
10:56 PM 36.9 °F 34.3 °F 32.0 °F 83% 30.16 in 8.0 mi NE 3.5 mph - N/A   Overcast
11:56 PM 37.9 °F 32.1 °F 30.0 °F 73% 30.15 in 8.0 mi NE 8.1 mph - N/A   Overcast